Location: *
(60.1759°S, 155.0663°W)
Time: 10:51:09
(UTC+00:00)

Cosmos 2360 - Pass Details

Date: 17 September 2019
Orbit: 845 x 856 km, 70.8° (Epoch: 18 October)

Event Time Altitude Azimuth Distance (km) Brightness Sun altitude
Rises 13:38:35 0° 221° (SW) 3,466 7.3 -20.3°
Reaches altitude 10° 13:41:04 10° 221° (SW) 2,524 6.6 -20.0°
Maximum altitude 13:46:53 86° 306° (NW) 876 4.2 -19.4°
Drops below altitude 10° 13:52:40 10° 36° (NE) 2,496 6.7 -18.8°
Sets 13:55:06 0° 36° (NE) 3,424 7.4 -18.6°
